Regional Weather Roundup
Issued by NWS Mobile, AL

Home | Current Version | Previous Version | Text Only | Print | Product List | Glossary On
Versions: 1 2 3 4 5 6 7 8 9 10 11 12 13 14 15 16 17 18 19 20 21 22 23 24 25 26 27 28 29 30 31 32 33 34 35 36 37 38 39 40 41 42 43 44 45 46 47 48 49 50
000
ASUS44 KMOB 310114
RWRMOB
REGIONAL WEATHER ROUNDUP
NATIONAL WEATHER SERVICE MOBILE AL
800 PM CDT SUN AUG 30 2015

ALZ061>064-310200-
COASTAL ALABAMA


CITY           SKY/WX    TMP DP  RH WIND       PRES   REMARKS
MOBILE REG APT PTCLDY    78  67  68 SW3       30.00R
BROOKLEY FIELD PTCLDY    80  68  66 SW3       29.99S
GULF SHORES    CLEAR     75  72  89 CALM      29.97S

$$

ALZ051>060-310200-
INTERIOR SOUTHWEST AND SOUTH CENTRAL ALABAMA


CITY           SKY/WX    TMP DP  RH WIND       PRES   REMARKS
ANDALUSIA/OPP  CLEAR     82  70  66 E3        30.01R
EVERGREEN      CLEAR     76  72  87 NE3       30.01R
FLORALA        CLEAR     77  71  82 CALM      30.02R
GREENVILLE     FAIR      76  70  82 CALM      30.02R

$$

FLZ001>006-310200-
WESTERN FLORIDA PANHANDLE


CITY           SKY/WX    TMP DP  RH WIND       PRES   REMARKS
CRESTVIEW      PTCLDY    78  72  81 N5        30.00S
DESTIN         PTCLDY    81  73  76 CALM      29.99R
DUKE FIELD     NOT AVBL
MARY ESTHER    CLEAR     83  69  61 CALM      29.97R
MILTON         PTCLDY    82  73  74 N5        29.99R
PENSACOLA      CLEAR     80  72  76 NW3       29.97S
NAS PENSACOLA  PTCLDY    77  72  84 CALM      29.97S
VALPARAISO     PTCLDY    83  70  62 E3        29.99R

$$

...MARINE OBSERVATIONS...

STATION/POSITION TIME  SKY/WX   TEMP    WIND        PRES    VSBY
                                AIR SEA DIR/SP/G
                 (UTC)          (F)     (DEG/KT/KT) (MB)    (MI)
E DAUPHIN ISLAND 0100            82     270/  3/  4 1015.1R
MIDDLE BAY LIGHT 0000                   250/  9     1014.2F
MEAHER PARK      0000            84     170/ 10     1014.6R
12 S ORANGE BCH  0050            83 86  260/  4/  6 1014.7R
WVE H/P(F/S)=  1

64 S DAUPHIN ISL 0050            83 87  280/  4/  4 1015.3F
WVE H/P(F/S)=  1/ 4

115 SE PENSACOLA 0050            83 86   40/  8/  8 1015.6R
WVE H/P(F/S)=  2/ 5

MID GULF/42001   0000            84 85  100/  6/  8 1015.0S
EAST GULF/42003  0050            85 87   20/ 14/ 17 1014.1R
WVE H/P(F/S)=  3/ 6


$$

...NEARBY LOCATIONS

CITY           SKY/WX    TMP DP  RH WIND       PRES   REMARKS
GULFPORT       PTCLDY    81  68  64 CALM      29.97S
BILOXI         PTCLDY    81  69  67 SW3       29.97F
PASCAGOULA     PTCLDY    74  69  85 W3        29.98S
HATTIESBURG    PTCLDY    78  67  68 CALM      29.98R
LAUREL         PTCLDY    79  61  53 CALM      30.00R
MERIDIAN       CLEAR     78  72  81 E5        30.01R
MERIDIAN NAS   PTCLDY    78  69  73 NE6       30.02R
MONTGOMERY     CLEAR     78  69  73 CALM      30.02R
MAXWELL AFB    CLEAR     76  72  86 N5        30.01R
TROY           CLEAR     78  68  71 CALM      30.03R
FORT RUCKER    CLEAR     76  67  73 CALM      30.00R
DALEVILLE        N/A     81  68  63 NE6       30.01R
DOTHAN         CLEAR     77  74  90 NE3       30.05R

$$

...OTHER SURROUNDING LOCATIONS...

CITY           SKY/WX    TMP DP  RH WIND       PRES   REMARKS
BIRMINGHAM     PTCLDY    71  68  90 NE5       30.08R
TUSCALOOSA     CLEAR     73  67  81 N5        30.04R
COLUMBUS GA    MOCLDY    77  70  79 E9        30.04R
PANAMA CITY    NOT AVBL
TALLAHASSEE    PTCLDY    85  70  60 N3        29.99S
BATON ROUGE    CLEAR     81  68  64 CALM      29.96S
NEW ORLEANS    PTCLDY    83  66  56 S8        29.97S
SLIDELL        CLEAR     82  71  69 S5        29.96S
JACKSON        LGT RAIN  85  65  51 SE3       29.96S
MCCOMB         PTCLDY    83  64  52 SW3       29.97S

$$

...SURROUNDING MARINE OBSERVATIONS...

STATION/POSITION TIME  SKY/WX   TEMP    WIND        PRES    VSBY
                                AIR SEA DIR/SP/G
                 (UTC)          (F)     (DEG/KT/KT) (MB)    (MI)
SOUTHWEST PASS   0100                                 N/A
TYNDALL TOWER C  0100            84     250/  1/  2 1015.5R
S APLCHCLA/42036 0050            84 86   40/  8/ 10 1015.1R
WVE H/P(F/S)=  1/ 3


$$



USA.gov is the U.S. government's official web portal to all federal, state and local government web resources and services.